Houghton, MI

10:10 PM EDT on July 22, 2017 (GMT -0400)
Houghton County Memorial

Weather History for KCMX - March, 2013

Change the Weather History Date:

Sunday, March 17, 2013

  Actual Average Record
Temperature  
Mean Temperature 12 °F -  
Max Temperature 19 °F 32 °F 75 °F (2012)
Min Temperature 5 °F 16 °F -10 °F (1955)
Degree Days  
Heating Degree Days 54    
Moisture  
Dew Point 2 °F    
Average Humidity 66    
Maximum Humidity 84    
Minimum Humidity 47    
Precipitation  
Precipitation 0.00 in - - ()
Sea Level Pressure  
Sea Level Pressure 30.23 in    
Wind  
Wind Speed 9 mph (ESE)    
Max Wind Speed 18 mph    
Max Gust Speed 25 mph    
Visibility 9 miles    
Events Snow    
Averages and records for this station are not official NWS values.
T = Trace of Precipitation, MM = Missing Value Source: NWS Daily Summary

Daily Weather History Graph

Daily Weather History Graph

Search for Another Location

Airport or City:

Trip Planner

Search our weather history database for the weather conditions in past years. The results will help you decide how hot, cold, wet, or windy it might be!

Date:

Astronomy

Mar. 17, 2013 Rise Set
Actual Time 8:02 AM EDT 8:02 PM EDT
Civil Twilight 7:31 AM EDT 8:33 PM EDT
Nautical Twilight 6:56 AM EDT 9:09 PM EDT
Astronomical Twilight 6:19 AM EDT 9:45 PM EDT
Moon 10:53 AM EDT (3/17) 1:31 AM EDT (3/17)
Length of Visible Light 13h 01m
Length of Day
12h 00m
Waxing Crescent, 31% of the Moon is Illuminated
Mar 17
Waxing Crescent
Mar 19
First Quarter
Mar 27
Full
Apr 3
Last Quarter
Apr 10
New

Hourly Weather History & Observations

Time (EDT) Temp. Windchill Dew Point Humidity Pressure Visibility Wind Dir Wind Speed Gust Speed Precip Events Conditions
12:53 AM 9.0 °F -9.0 °F -2.9 °F 59% 30.19 in 6.0 mi NNW 17.3 mph 25.3 mph N/A   Haze
1:53 AM 9.0 °F -9.5 °F -2.9 °F 59% 30.21 in 10.0 mi NNW 18.4 mph 23.0 mph N/A   Overcast
2:53 AM 8.1 °F -7.0 °F -4.0 °F 58% 30.25 in 10.0 mi NNW 11.5 mph 20.7 mph N/A   Overcast
3:53 AM 8.1 °F -4.3 °F -2.9 °F 61% 30.26 in 10.0 mi NNW 8.1 mph - N/A   Overcast
4:53 AM 7.0 °F -4.5 °F -2.9 °F 64% 30.28 in 10.0 mi NNW 6.9 mph - N/A   Overcast
5:53 AM 6.1 °F - -2.9 °F 67% 30.29 in 9.0 mi Calm Calm - N/A   Overcast
6:19 AM 5.0 °F -2.1 °F -2.2 °F 72% 30.21 in 9.0 mi NW 3.5 mph - 0.00 in   Overcast
6:53 AM 5.0 °F - -0.9 °F 76% 30.30 in 5.0 mi Calm Calm - 0.00 in Snow Light Snow
7:53 AM 6.1 °F - 1.0 °F 80% 30.30 in 6.0 mi Calm Calm - 0.00 in Snow Light Snow
8:53 AM 5.0 °F - 1.0 °F 84% 30.30 in 10.0 mi Calm Calm - 0.00 in   Overcast
9:53 AM 8.1 °F 1.4 °F 1.0 °F 73% 30.31 in 10.0 mi South 3.5 mph - N/A   Overcast
10:53 AM 9.0 °F - 1.0 °F 70% 30.31 in 10.0 mi Calm Calm - N/A   Mostly Cloudy
11:09 AM 10.4 °F 4.0 °F 1.4 °F 67% 30.23 in 10.0 mi SSE 3.5 mph - N/A   Scattered Clouds
11:53 AM 10.9 °F - -0.0 °F 61% 30.31 in 10.0 mi Calm Calm - N/A   Clear
12:53 PM 12.9 °F 2.6 °F 1.9 °F 62% 30.30 in 10.0 mi SSW 6.9 mph - N/A   Clear
1:53 PM 14.0 °F 5.1 °F 1.0 °F 56% 30.31 in 10.0 mi SSW 5.8 mph - N/A   Clear
2:53 PM 17.1 °F 11.7 °F -0.0 °F 47% 30.27 in 10.0 mi SSE 3.5 mph - N/A   Clear
3:53 PM 17.6 °F 7.3 °F 3.2 °F 53% 30.17 in 10.0 mi SE 8.1 mph - N/A   Clear
4:53 PM 18.0 °F 6.1 °F 6.1 °F 60% 30.22 in 10.0 mi East 10.4 mph - N/A   Clear
5:53 PM 18.0 °F 5.4 °F 7.0 °F 62% 30.20 in 10.0 mi East 11.5 mph - N/A   Clear
6:53 PM 18.0 °F 6.1 °F 10.0 °F 71% 30.19 in 10.0 mi East 10.4 mph - N/A   Clear
7:53 PM 18.0 °F 7.7 °F 10.9 °F 74% 30.16 in 10.0 mi East 8.1 mph - N/A   Clear
8:53 PM 18.0 °F 8.7 °F 12.0 °F 78% 30.15 in 10.0 mi East 6.9 mph - N/A   Mostly Cloudy
9:53 PM 17.1 °F 6.6 °F 10.9 °F 77% 30.13 in 10.0 mi ESE 8.1 mph - N/A   Partly Cloudy
10:53 PM 15.1 °F 4.2 °F 5.0 °F 64% 30.12 in 10.0 mi SE 8.1 mph - N/A   Clear
11:53 PM 14.0 °F 1.2 °F 3.9 °F 64% 30.10 in 10.0 mi ESE 10.4 mph - N/A   Clear